| time (UTC) | temp C | wind direction | speed KPH | gust KPH | rain 1hr cm | rain 24hr cm | rain mn cm | humidity % | barometer mb |
| 20260505210426 | 26 | 221 | 8.0 | 16.1 | 0.00 | 0.00 | 0.00 | 35 | 1014.2 |
| 20260505205021 | 26 | 197 | 6.4 | 19.3 | 0.00 | 0.00 | 0.00 | 37 | 1014.4 |
| 20260505204857 | 26 | 197 | 6.4 | 19.3 | 0.00 | 0.00 | 0.00 | 37 | 1014.4 |
| 20260505203424 | 26 | 236 | 3.2 | 17.7 | 0.00 | 0.00 | 0.00 | 36 | 1014.5 |
| 20260505201931 | 26 | 213 | 11.3 | 22.5 | 0.00 | 0.00 | 0.00 | 37 | 1014.7 |
| 20260505201821 | 26 | 213 | 11.3 | 22.5 | 0.00 | 0.00 | 0.00 | 37 | 1014.7 |
| 20260505200511 | 25 | 207 | 9.7 | 19.3 | 0.00 | 0.00 | 0.00 | 37 | 1014.8 |
| 20260505200403 | 25 | 207 | 9.7 | 19.3 | 0.00 | 0.00 | 0.00 | 37 | 1014.8 |
| 20260505195004 | 25 | 244 | 6.4 | 16.1 | 0.00 | 0.00 | 0.00 | 37 | 1015.0 |
| 20260505194828 | 25 | 244 | 6.4 | 16.1 | 0.00 | 0.00 | 0.00 | 37 | 1015.0 |
| 20260505193441 | 26 | 218 | 3.2 | 14.5 | 0.00 | 0.00 | 0.00 | 36 | 1015.3 |
| 20260505191927 | 26 | 206 | 9.7 | 19.3 | 0.00 | 0.00 | 0.00 | 37 | 1015.6 |
| 20260505190444 | 25 | 351 | 4.8 | 14.5 | 0.00 | 0.00 | 0.00 | 38 | 1015.8 |
| 20260505190326 | 25 | 351 | 4.8 | 14.5 | 0.00 | 0.00 | 0.00 | 38 | 1015.8 |
| 20260505184938 | 25 | 225 | 6.4 | 16.1 | 0.00 | 0.00 | 0.00 | 39 | 1016.1 |
| 20260505183450 | 25 | 260 | 6.4 | 16.1 | 0.00 | 0.00 | 0.00 | 37 | 1016.2 |
| 20260505182009 | 25 | 194 | 4.8 | 17.7 | 0.00 | 0.00 | 0.00 | 40 | 1016.1 |
| 20260505181900 | 25 | 194 | 4.8 | 17.7 | 0.00 | 0.00 | 0.00 | 40 | 1016.1 |
| 20260505180539 | 24 | 192 | 4.8 | 16.1 | 0.00 | 0.00 | 0.00 | 39 | 1016.5 |
| 20260505180417 | 24 | 192 | 4.8 | 16.1 | 0.00 | 0.00 | 0.00 | 39 | 1016.5 |
| 20260505174952 | 24 | 276 | 4.8 | 19.3 | 0.00 | 0.00 | 0.00 | 41 | 1016.7 |
| 20260505174842 | 24 | 276 | 4.8 | 19.3 | 0.00 | 0.00 | 0.00 | 41 | 1016.7 |
| 20260505173504 | 24 | 185 | 1.6 | 20.9 | 0.00 | 0.00 | 0.00 | 39 | 1016.9 |
| 20260505172022 | 25 | 214 | 8.0 | 22.5 | 0.00 | 0.00 | 0.00 | 39 | 1017.1 |
| 20260505171835 | 25 | 214 | 8.0 | 22.5 | 0.00 | 0.00 | 0.00 | 39 | 1017.1 |
| 20260505170459 | 23 | 263 | 3.2 | 14.5 | 0.00 | 0.00 | 0.00 | 44 | 1017.2 |
| 20260505170354 | 23 | 263 | 3.2 | 14.5 | 0.00 | 0.00 | 0.00 | 44 | 1017.2 |
| 20260505165026 | 23 | 213 | 4.8 | 17.7 | 0.00 | 0.00 | 0.00 | 45 | 1017.0 |
| 20260505164841 | 23 | 213 | 4.8 | 17.7 | 0.00 | 0.00 | 0.00 | 45 | 1017.0 |
| 20260505163546 | 23 | 168 | 4.8 | 14.5 | 0.00 | 0.00 | 0.00 | 47 | 1017.1 |
| 20260505163348 | 23 | 168 | 4.8 | 14.5 | 0.00 | 0.00 | 0.00 | 47 | 1017.1 |
| 20260505162009 | 22 | 139 | 1.6 | 8.0 | 0.00 | 0.00 | 0.00 | 51 | 1017.3 |
| 20260505161849 | 22 | 139 | 1.6 | 8.0 | 0.00 | 0.00 | 0.00 | 51 | 1017.3 |
| 20260505160512 | 21 | 205 | 3.2 | 9.7 | 0.00 | 0.00 | 0.00 | 51 | 1017.4 |
| 20260505160343 | 21 | 205 | 3.2 | 9.7 | 0.00 | 0.00 | 0.00 | 51 | 1017.4 |
| 20260505152014 | 19 | 0 | 0.0 | 4.8 | 0.00 | 0.00 | 0.00 | 57 | 1017.9 |
| 20260505151908 | 19 | 0 | 0.0 | 4.8 | 0.00 | 0.00 | 0.00 | 57 | 1017.9 |
| 20260505150357 | 19 | 0 | 0.0 | 8.0 | 0.00 | 0.00 | 0.00 | 56 | 1017.8 |
| 20260505140512 | 16 | 0 | 0.0 | 8.0 | 0.00 | 0.00 | 0.00 | 63 | 1017.6 |
| 20260505140324 | 16 | 0 | 0.0 | 8.0 | 0.00 | 0.00 | 0.00 | 63 | 1017.6 |
| 20260505124920 | 13 | 0 | 0.0 | 0.0 | 0.00 | 0.00 | 0.00 | 74 | 1017.3 |
| 20260505123414 | 12 | 0 | 0.0 | 0.0 | 0.00 | 0.00 | 0.00 | 77 | 1017.4 |
| 20260505121934 | 11 | 0 | 0.0 | 0.0 | 0.00 | 0.00 | 0.00 | 79 | 1017.2 |
| 20260505120455 | 11 | 0 | 0.0 | 0.0 | 0.00 | 0.00 | 0.00 | 84 | 1016.7 |
| 20260505114905 | 9 | 0 | 0.0 | 0.0 | 0.00 | 0.00 | 0.00 | 87 | 1016.7 |
| 20260505113354 | 8 | 0 | 0.0 | 0.0 | 0.00 | 0.00 | 0.00 | 87 | 1016.5 |
| 20260505111917 | 8 | 0 | 0.0 | 0.0 | 0.00 | 0.00 | 0.00 | 87 | 1016.4 |
| 20260505110409 | 8 | 0 | 0.0 | 0.0 | 0.00 | 0.00 | 0.00 | 86 | 1016.6 |
| 20260505101917 | 8 | 0 | 0.0 | 0.0 | 0.00 | 0.00 | 0.00 | 85 | 1016.3 |
| 20260505100429 | 8 | 0 | 0.0 | 0.0 | 0.00 | 0.00 | 0.00 | 85 | 1016.3 |
| 20260505095011 | 8 | 0 | 0.0 | 0.0 | 0.00 | 0.00 | 0.00 | 84 | 1016.1 |
| 20260505094908 | 8 | 0 | 0.0 | 0.0 | 0.00 | 0.00 | 0.00 | 84 | 1016.1 |
| 20260505093411 | 8 | 0 | 0.0 | 0.0 | 0.00 | 0.00 | 0.00 | 84 | 1016.0 |
| 20260505092003 | 8 | 0 | 0.0 | 0.0 | 0.00 | 0.00 | 0.00 | 83 | 1016.1 |
| 20260505091839 | 8 | 0 | 0.0 | 0.0 | 0.00 | 0.00 | 0.00 | 83 | 1016.1 |
| 20260505090357 | 8 | 0 | 0.0 | 0.0 | 0.00 | 0.00 | 0.00 | 82 | 1016.2 |
| 20260505084918 | 8 | 0 | 0.0 | 0.0 | 0.00 | 0.00 | 0.00 | 82 | 1016.2 |
| 20260505083507 | 9 | 0 | 0.0 | 0.0 | 0.00 | 0.00 | 0.00 | 81 | 1015.8 |
| 20260505083342 | 9 | 0 | 0.0 | 0.0 | 0.00 | 0.00 | 0.00 | 81 | 1015.8 |
| 20260505082002 | 9 | 0 | 0.0 | 0.0 | 0.00 | 0.00 | 0.00 | 80 | 1015.8 |
| 20260505080445 | 10 | 0 | 0.0 | 0.0 | 0.00 | 0.00 | 0.00 | 80 | 1015.6 |
| 20260505074911 | 10 | 0 | 0.0 | 0.0 | 0.00 | 0.00 | 0.00 | 80 | 1015.6 |
| 20260505073530 | 10 | 0 | 0.0 | 0.0 | 0.00 | 0.00 | 0.00 | 80 | 1015.6 |
| 20260505073340 | 10 | 0 | 0.0 | 0.0 | 0.00 | 0.00 | 0.00 | 80 | 1015.6 |
| 20260505071929 | 10 | 0 | 0.0 | 0.0 | 0.00 | 0.00 | 0.00 | 80 | 1015.7 |
| 20260505070432 | 11 | 0 | 0.0 | 0.0 | 0.00 | 0.00 | 0.00 | 80 | 1015.7 |
| 20260505064951 | 11 | 0 | 0.0 | 0.0 | 0.00 | 0.00 | 0.00 | 79 | 1015.9 |
| 20260505064826 | 11 | 0 | 0.0 | 0.0 | 0.00 | 0.00 | 0.00 | 79 | 1015.9 |
| 20260505063534 | 11 | 0 | 0.0 | 0.0 | 0.00 | 0.00 | 0.00 | 79 | 1016.0 |
| 20260505063351 | 11 | 0 | 0.0 | 0.0 | 0.00 | 0.00 | 0.00 | 79 | 1016.0 |
| 20260505062027 | 11 | 0 | 0.0 | 0.0 | 0.00 | 0.00 | 0.00 | 77 | 1016.0 |
| 20260505061837 | 11 | 0 | 0.0 | 0.0 | 0.00 | 0.00 | 0.00 | 77 | 1016.0 |
| 20260505060526 | 11 | 0 | 0.0 | 0.0 | 0.00 | 0.00 | 0.00 | 76 | 1015.9 |
| 20260505060417 | 11 | 0 | 0.0 | 0.0 | 0.00 | 0.00 | 0.00 | 76 | 1015.9 |
| 20260505054955 | 11 | 0 | 0.0 | 0.0 | 0.00 | 0.00 | 0.00 | 77 | 1015.9 |
| 20260505054831 | 11 | 0 | 0.0 | 0.0 | 0.00 | 0.00 | 0.00 | 77 | 1015.9 |
| 20260505053534 | 12 | 0 | 0.0 | 0.0 | 0.00 | 0.00 | 0.00 | 76 | 1016.0 |
| 20260505053333 | 12 | 0 | 0.0 | 0.0 | 0.00 | 0.00 | 0.00 | 76 | 1016.0 |
| 20260505051918 | 12 | 0 | 0.0 | 0.0 | 0.00 | 0.00 | 0.00 | 75 | 1016.0 |
| 20260505050456 | 12 | 0 | 0.0 | 0.0 | 0.00 | 0.00 | 0.00 | 74 | 1016.1 |
| 20260505040445 | 14 | 0 | 0.0 | 0.0 | 0.00 | 0.00 | 0.00 | 70 | 1016.2 |
| 20260505034943 | 14 | 0 | 0.0 | 0.0 | 0.00 | 0.00 | 0.00 | 68 | 1016.2 |
| 20260505033425 | 15 | 0 | 0.0 | 0.0 | 0.00 | 0.00 | 0.00 | 69 | 1016.2 |
| 20260505031929 | 15 | 0 | 0.0 | 0.0 | 0.00 | 0.00 | 0.00 | 68 | 1016.2 |
| 20260505030428 | 15 | 0 | 0.0 | 0.0 | 0.00 | 0.00 | 0.00 | 68 | 1016.3 |
| 20260505024931 | 16 | 0 | 0.0 | 0.0 | 0.00 | 0.00 | 0.00 | 66 | 1016.3 |
| 20260505023357 | 16 | 0 | 0.0 | 0.0 | 0.00 | 0.00 | 0.00 | 64 | 1016.2 |
| 20260505022017 | 16 | 0 | 0.0 | 0.0 | 0.00 | 0.00 | 0.00 | 63 | 1015.9 |
| 20260505021828 | 16 | 0 | 0.0 | 0.0 | 0.00 | 0.00 | 0.00 | 63 | 1015.9 |
| 20260505020511 | 17 | 0 | 0.0 | 0.0 | 0.00 | 0.00 | 0.00 | 61 | 1015.8 |
| 20260505020327 | 17 | 0 | 0.0 | 0.0 | 0.00 | 0.00 | 0.00 | 61 | 1015.8 |
| 20260505014908 | 17 | 0 | 0.0 | 0.0 | 0.00 | 0.00 | 0.00 | 59 | 1015.8 |
| 20260505013449 | 18 | 0 | 0.0 | 0.0 | 0.00 | 0.00 | 0.00 | 59 | 1015.6 |
| 20260505011943 | 18 | 0 | 0.0 | 0.0 | 0.00 | 0.00 | 0.00 | 57 | 1015.6 |
| 20260505010405 | 19 | 0 | 0.0 | 0.0 | 0.00 | 0.00 | 0.00 | 56 | 1015.2 |
| 20260505005000 | 20 | 0 | 0.0 | 0.0 | 0.00 | 0.00 | 0.00 | 52 | 1015.2 |
| 20260505004853 | 20 | 0 | 0.0 | 0.0 | 0.00 | 0.00 | 0.00 | 52 | 1015.2 |
| 20260505003458 | 21 | 0 | 0.0 | 0.0 | 0.00 | 0.00 | 0.00 | 53 | 1015.1 |
| 20260505002020 | 22 | 0 | 0.0 | 0.0 | 0.00 | 0.00 | 0.00 | 49 | 1015.0 |
| 20260505001856 | 22 | 0 | 0.0 | 0.0 | 0.00 | 0.00 | 0.00 | 49 | 1015.0 |
| 20260505000514 | 22 | 0 | 0.0 | 0.0 | 0.00 | 0.00 | 0.00 | 49 | 1015.1 |
| 20260505000338 | 22 | 0 | 0.0 | 0.0 | 0.00 | 0.00 | 0.00 | 49 | 1015.1 |
| 20260504235020 | 23 | 0 | 0.0 | 0.0 | 0.00 | 0.00 | 0.00 | 48 | 1015.0 |
| 20260504234835 | 23 | 0 | 0.0 | 0.0 | 0.00 | 0.00 | 0.00 | 48 | 1015.0 |
| 20260504233449 | 23 | 0 | 0.0 | 0.0 | 0.00 | 0.00 | 0.00 | 47 | 1014.7 |
| 20260504231833 | 23 | 0 | 0.0 | 1.6 | 0.00 | 0.00 | 0.00 | 44 | 1014.8 |
| 20260504230422 | 23 | 0 | 0.0 | 8.0 | 0.00 | 0.00 | 0.00 | 43 | 1014.7 |
| 20260504224911 | 24 | 0 | 0.0 | 8.0 | 0.00 | 0.00 | 0.00 | 40 | 1014.7 |
| 20260504223422 | 24 | 0 | 3.2 | 11.3 | 0.00 | 0.00 | 0.00 | 39 | 1014.7 |
| 20260504221909 | 24 | 0 | 1.6 | 9.7 | 0.00 | 0.00 | 0.00 | 40 | 1014.7 |
| 20260504220429 | 25 | 0 | 1.6 | 12.9 | 0.00 | 0.00 | 0.00 | 36 | 1014.8 |
| 20260504215009 | 24 | 208 | 0.0 | 12.9 | 0.00 | 0.00 | 0.00 | 36 | 1014.7 |
| 20260504214910 | 24 | 208 | 0.0 | 12.9 | 0.00 | 0.00 | 0.00 | 36 | 1014.7 |
| 20260504213407 | 24 | 205 | 3.2 | 11.3 | 0.00 | 0.00 | 0.00 | 35 | 1014.8 |
| 20260504211951 | 24 | 177 | 1.6 | 12.9 | 0.00 | 0.00 | 0.00 | 37 | 1014.8 |